Location: Wanzleben
(52.0609°N, 11.4408°E)
Time: 15:05:29
(UTC+00:00)

MetOp-B - Pass Details

Date: 18 September 2020
Orbit: 819 x 821 km, 98.7° (Epoch: 22 October)

Event Time Altitude Azimuth Distance (km) Brightness Sun altitude
Exits shadow 19:41:03 43° 139° (SE) 1,137 4.4 -21.1°
Maximum altitude 19:42:45 70° 70° (ENE) 876 4.1 -21.3°
Drops below altitude 10° 19:48:06 10° 348° (NNW) 2,429 7.2 -22.0°
Sets 19:50:28 0° 347° (NNW) 3,366 8.1 -22.3°
